[Date Prev][Date Next][Thread Prev][Thread Next] - [Date Index][Thread Index][Author Index]

2 Line ISS Keps 5-9



ISS
1 25544U 98067A   05129.29321459  .00012799  00000-0  10075-3 0  4272
2 25544 051.6441 100.0763 0008018 098.0456 055.4669 15.71854812369565
----
Via the sarex mailing list at AMSAT.ORG courtesy of AMSAT-NA.
To unsubscribe, send "unsubscribe sarex" to Majordomo@amsat.org



AMSAT Top AMSAT Home